Time,TemperatureF,DewpointF,PressureIn,WindDirection,WindDirectionDegrees,WindSpeedMPH,WindSpeedGustMPH,Humidity,HourlyPrecipIn,Conditions,Clouds,dailyrainin,SoftwareType,DateUTC
2013-11-17 00:04:00,63.9,57.6,29.03,South,171,10.0,14.0,80,0.00,,,0.00,Wunderground v.1.15,2013-11-17 06:04:00,
2013-11-17 00:10:00,63.9,58.0,29.03,South,178,10.0,15.0,81,0.00,,,0.00,Wunderground v.1.15,2013-11-17 06:10:00,
2013-11-17 00:15:00,64.0,58.1,29.02,South,169,11.0,16.0,81,0.00,,,0.00,Wunderground v.1.15,2013-11-17 06:15:00,
2013-11-17 00:20:00,64.0,58.1,29.02,South,171,10.0,11.0,81,0.00,,,0.00,Wunderground v.1.15,2013-11-17 06:20:00,
2013-11-17 00:26:00,64.2,58.2,29.02,South,186,10.0,12.0,81,0.00,,,0.00,Wunderground v.1.15,2013-11-17 06:26:00,
2013-11-17 00:31:00,64.3,58.3,29.02,SE,146,10.0,12.0,81,0.00,,,0.00,Wunderground v.1.15,2013-11-17 06:31:00,
2013-11-17 00:37:00,64.4,58.4,29.02,South,178,10.0,12.0,81,0.00,,,0.00,Wunderground v.1.15,2013-11-17 06:37:00,
2013-11-17 00:42:00,64.4,58.4,29.02,South,175,10.0,10.0,81,0.00,,,0.00,Wunderground v.1.15,2013-11-17 06:42:00,
2013-11-17 00:48:00,64.5,58.5,29.02,SE,141,9.0,15.0,81,0.00,,,0.00,Wunderground v.1.15,2013-11-17 06:48:00,
2013-11-17 00:53:00,64.6,-99.9,29.01,South,178,10.0,14.0,255,0.00,,,0.00,Wunderground v.1.15,2013-11-17 06:53:00,
2013-11-17 00:59:00,63.9,59.3,29.01,South,172,11.0,16.0,85,0.00,,,0.01,Wunderground v.1.15,2013-11-17 06:59:00,
2013-11-17 01:04:00,63.8,59.2,29.01,SSE,166,11.0,15.0,85,0.00,,,0.01,Wunderground v.1.15,2013-11-17 07:04:00,
2013-11-17 01:10:00,63.8,59.2,29.01,SSE,164,11.0,21.0,85,0.00,,,0.01,Wunderground v.1.15,2013-11-17 07:10:00,
2013-11-17 01:15:00,64.0,59.4,29.03,SSW,204,10.0,13.0,85,0.00,,,0.01,Wunderground v.1.15,2013-11-17 07:15:00,
2013-11-17 01:21:00,63.8,59.5,29.01,SSE,155,9.0,11.0,86,0.00,,,0.02,Wunderground v.1.15,2013-11-17 07:21:00,
2013-11-17 01:26:00,63.7,59.8,28.99,SSE,150,9.0,12.0,87,0.00,,,0.02,Wunderground v.1.15,2013-11-17 07:26:00,
2013-11-17 01:31:00,63.6,59.7,28.99,SSE,159,10.0,12.0,87,0.04,,,0.03,Wunderground v.1.15,2013-11-17 07:31:00,
2013-11-17 01:37:00,63.5,59.6,28.98,SSE,161,10.0,12.0,87,0.04,,,0.03,Wunderground v.1.15,2013-11-17 07:37:00,
2013-11-17 01:42:00,63.4,59.5,28.98,South,173,8.0,9.0,87,0.04,,,0.03,Wunderground v.1.15,2013-11-17 07:42:00,
2013-11-17 01:48:00,63.5,59.6,28.98,South,174,7.0,10.0,87,0.00,,,0.04,Wunderground v.1.15,2013-11-17 07:48:00,
2013-11-17 01:53:00,63.7,59.8,28.98,SSE,161,7.0,7.0,87,0.00,,,0.04,Wunderground v.1.15,2013-11-17 07:53:00,
2013-11-17 01:58:00,63.9,59.6,28.98,South,171,7.0,10.0,86,0.00,,,0.04,Wunderground v.1.15,2013-11-17 07:58:00,
2013-11-17 02:04:00,64.0,59.7,28.97,SSE,158,6.0,9.0,86,0.05,,,0.05,Wunderground v.1.15,2013-11-17 08:04:00,
2013-11-17 02:09:00,64.0,59.7,28.97,SSE,168,7.0,18.0,86,0.05,,,0.05,Wunderground v.1.15,2013-11-17 08:09:00,
2013-11-17 02:14:00,64.0,59.7,28.97,South,180,9.0,14.0,86,0.04,,,0.05,Wunderground v.1.15,2013-11-17 08:14:00,
2013-11-17 02:20:00,63.9,59.6,28.97,South,171,8.0,14.0,86,0.00,,,0.06,Wunderground v.1.15,2013-11-17 08:20:00,
2013-11-17 02:25:00,63.9,59.6,28.97,South,169,8.0,10.0,86,0.00,,,0.06,Wunderground v.1.15,2013-11-17 08:25:00,
2013-11-17 02:31:00,64.0,59.7,28.97,SSE,157,10.0,11.0,86,0.00,,,0.06,Wunderground v.1.15,2013-11-17 08:31:00,
2013-11-17 02:36:00,64.4,60.1,28.97,South,171,10.0,11.0,86,0.04,,,0.07,Wunderground v.1.15,2013-11-17 08:36:00,
2013-11-17 02:42:00,64.6,60.3,28.97,ESE,123,9.0,11.0,86,0.04,,,0.07,Wunderground v.1.15,2013-11-17 08:42:00,
2013-11-17 02:47:00,64.4,60.1,28.97,SSE,168,10.0,14.0,86,0.04,,,0.07,Wunderground v.1.15,2013-11-17 08:47:00,
2013-11-17 02:53:00,64.3,59.7,28.96,SSE,154,10.0,13.0,85,0.00,,,0.08,Wunderground v.1.15,2013-11-17 08:53:00,
2013-11-17 02:58:00,64.1,59.8,28.96,SSE,168,9.0,14.0,86,0.00,,,0.08,Wunderground v.1.15,2013-11-17 08:58:00,
2013-11-17 03:03:00,64.1,59.8,28.97,SSE,156,9.0,10.0,86,0.00,,,0.08,Wunderground v.1.15,2013-11-17 09:03:00,
2013-11-17 03:09:00,64.0,59.7,28.96,SSE,159,9.0,10.0,86,0.00,,,0.08,Wunderground v.1.15,2013-11-17 09:09:00,
2013-11-17 03:14:00,63.8,59.5,28.96,SSE,160,9.0,9.0,86,0.00,,,0.09,Wunderground v.1.15,2013-11-17 09:14:00,
2013-11-17 03:20:00,63.7,59.8,28.95,SSE,161,9.0,13.0,87,0.00,,,0.09,Wunderground v.1.15,2013-11-17 09:20:00,
2013-11-17 03:25:00,63.6,59.7,28.95,SSE,154,10.0,15.0,87,0.00,,,0.09,Wunderground v.1.15,2013-11-17 09:25:00,
2013-11-17 03:30:00,63.7,59.8,28.95,SSE,167,9.0,9.0,87,0.00,,,0.09,Wunderground v.1.15,2013-11-17 09:30:00,
2013-11-17 03:36:00,63.6,59.7,28.95,South,178,10.0,12.0,87,0.00,,,0.09,Wunderground v.1.15,2013-11-17 09:36:00,
2013-11-17 03:41:00,63.6,59.7,28.95,SE,126,10.0,15.0,87,0.00,,,0.09,Wunderground v.1.15,2013-11-17 09:41:00,
2013-11-17 03:47:00,63.8,59.9,28.95,South,180,10.0,20.0,87,0.00,,,0.10,Wunderground v.1.15,2013-11-17 09:47:00,
2013-11-17 03:52:00,63.8,59.9,28.95,SSE,154,10.0,12.0,87,0.00,,,0.10,Wunderground v.1.15,2013-11-17 09:52:00,
2013-11-17 03:57:00,63.8,59.9,28.94,SSE,157,9.0,17.0,87,0.00,,,0.10,Wunderground v.1.15,2013-11-17 09:57:00,
2013-11-17 04:03:00,63.8,59.9,28.94,SSE,158,9.0,15.0,87,0.00,,,0.10,Wunderground v.1.15,2013-11-17 10:03:00,
2013-11-17 04:09:00,63.8,-99.9,28.94,South,188,9.0,15.0,255,0.00,,,0.10,Wunderground v.1.15,2013-11-17 10:09:00,
2013-11-17 04:14:00,63.8,60.2,28.93,SSE,161,9.0,19.0,88,0.00,,,0.10,Wunderground v.1.15,2013-11-17 10:14:00,
2013-11-17 04:19:00,63.8,60.2,28.93,SSE,148,8.0,19.0,88,0.00,,,0.10,Wunderground v.1.15,2013-11-17 10:19:00,
2013-11-17 04:25:00,64.0,60.1,28.93,SSE,159,9.0,12.0,87,0.00,,,0.10,Wunderground v.1.15,2013-11-17 10:25:00,
2013-11-17 04:30:00,64.1,60.5,28.92,SSE,161,9.0,11.0,88,0.00,,,0.10,Wunderground v.1.15,2013-11-17 10:30:00,
2013-11-17 04:36:00,64.2,60.2,28.92,South,169,9.0,11.0,87,0.00,,,0.10,Wunderground v.1.15,2013-11-17 10:36:00,
2013-11-17 04:41:00,64.3,60.3,28.92,South,182,8.0,14.0,87,0.00,,,0.10,Wunderground v.1.15,2013-11-17 10:41:00,
2013-11-17 04:46:00,64.5,60.5,28.92,SSE,161,8.0,14.0,87,0.00,,,0.10,Wunderground v.1.15,2013-11-17 10:46:00,
2013-11-17 04:52:00,64.7,60.7,28.92,SE,145,9.0,25.0,87,0.00,,,0.10,Wunderground v.1.15,2013-11-17 10:52:00,
2013-11-17 04:57:00,65.0,60.7,28.91,SSE,167,10.0,25.0,86,0.00,,,0.10,Wunderground v.1.15,2013-11-17 10:57:00,
2013-11-17 05:03:00,65.1,60.8,28.91,SSE,167,9.0,10.0,86,0.00,,,0.10,Wunderground v.1.15,2013-11-17 11:03:00,
2013-11-17 05:08:00,65.3,61.0,28.91,SE,146,9.0,17.0,86,0.00,,,0.10,Wunderground v.1.15,2013-11-17 11:08:00,
2013-11-17 05:13:00,65.4,61.1,28.91,South,180,10.0,12.0,86,0.00,,,0.10,Wunderground v.1.15,2013-11-17 11:13:00,
2013-11-17 05:19:00,65.7,61.4,28.91,South,182,11.0,13.0,86,0.00,,,0.10,Wunderground v.1.15,2013-11-17 11:19:00,
2013-11-17 05:24:00,66.0,61.4,28.91,SSE,159,11.0,13.0,85,0.00,,,0.10,Wunderground v.1.15,2013-11-17 11:24:00,
2013-11-17 05:30:00,66.1,61.5,28.90,South,185,11.0,17.0,85,0.00,,,0.10,Wunderground v.1.15,2013-11-17 11:30:00,
2013-11-17 05:36:00,66.4,61.4,28.90,SSW,194,12.0,14.0,84,0.00,,,0.10,Wunderground v.1.15,2013-11-17 11:36:00,
2013-11-17 05:41:00,66.8,61.5,28.90,South,175,12.0,12.0,83,0.00,,,0.10,Wunderground v.1.15,2013-11-17 11:41:00,
2013-11-17 05:47:00,66.9,61.6,28.89,South,181,11.0,21.0,83,0.00,,,0.10,Wunderground v.1.15,2013-11-17 11:47:00,
2013-11-17 05:52:00,67.1,61.8,28.88,SSE,155,12.0,20.0,83,0.00,,,0.10,Wunderground v.1.15,2013-11-17 11:52:00,
2013-11-17 05:58:00,67.3,62.0,28.89,South,188,12.0,20.0,83,0.00,,,0.10,Wunderground v.1.15,2013-11-17 11:58:00,
2013-11-17 06:03:00,67.6,61.9,28.89,SSW,196,13.0,17.0,82,0.00,,,0.10,Wunderground v.1.15,2013-11-17 12:03:00,
2013-11-17 06:09:00,67.7,62.0,28.89,South,173,12.0,17.0,82,0.00,,,0.10,Wunderground v.1.15,2013-11-17 12:09:00,
2013-11-17 06:14:00,67.7,62.0,28.89,South,181,12.0,19.0,82,0.00,,,0.10,Wunderground v.1.15,2013-11-17 12:14:00,
2013-11-17 06:19:00,67.7,62.0,28.89,South,186,11.0,19.0,82,0.00,,,0.10,Wunderground v.1.15,2013-11-17 12:19:00,
2013-11-17 06:25:00,67.7,62.0,28.88,South,179,9.0,14.0,82,0.00,,,0.10,Wunderground v.1.15,2013-11-17 12:25:00,
2013-11-17 06:30:00,67.7,62.0,28.89,South,184,9.0,9.0,82,0.00,,,0.10,Wunderground v.1.15,2013-11-17 12:30:00,
2013-11-17 06:36:00,67.7,62.0,28.88,SSE,161,9.0,14.0,82,0.00,,,0.10,Wunderground v.1.15,2013-11-17 12:36:00,
2013-11-17 06:41:00,67.8,62.1,28.88,SSE,165,11.0,11.0,82,0.00,,,0.10,Wunderground v.1.15,2013-11-17 12:41:00,
2013-11-17 06:46:00,68.0,62.3,28.88,South,175,10.0,11.0,82,0.00,,,0.10,Wunderground v.1.15,2013-11-17 12:46:00,
2013-11-17 06:52:00,67.9,62.2,28.88,SSW,200,9.0,9.0,82,0.00,,,0.10,Wunderground v.1.15,2013-11-17 12:52:00,
2013-11-17 06:57:00,67.9,61.9,28.88,South,183,10.0,16.0,81,0.00,,,0.10,Wunderground v.1.15,2013-11-17 12:57:00,
2013-11-17 07:03:00,67.8,62.1,28.88,South,180,9.0,13.0,82,0.00,,,0.10,Wunderground v.1.15,2013-11-17 13:03:00,
2013-11-17 07:08:00,67.9,62.2,28.88,SE,146,9.0,19.0,82,0.00,,,0.10,Wunderground v.1.15,2013-11-17 13:08:00,
2013-11-17 07:14:00,67.9,62.2,28.88,South,171,9.0,13.0,82,0.00,,,0.10,Wunderground v.1.15,2013-11-17 13:14:00,
2013-11-17 07:19:00,68.0,62.6,28.88,South,178,9.0,13.0,83,0.00,,,0.10,Wunderground v.1.15,2013-11-17 13:19:00,
2013-11-17 07:24:00,68.1,62.4,28.88,South,184,11.0,21.0,82,0.00,,,0.10,Wunderground v.1.15,2013-11-17 13:24:00,
2013-11-17 07:30:00,68.3,62.6,28.88,SSE,158,10.0,21.0,82,0.00,,,0.10,Wunderground v.1.15,2013-11-17 13:30:00,
2013-11-17 07:35:00,68.3,62.2,28.88,South,169,10.0,10.0,81,0.00,,,0.10,Wunderground v.1.15,2013-11-17 13:35:00,
2013-11-17 07:41:00,68.3,62.6,28.88,South,169,10.0,10.0,82,0.00,,,0.10,Wunderground v.1.15,2013-11-17 13:41:00,
2013-11-17 07:46:00,68.4,62.3,28.88,SSW,194,10.0,11.0,81,0.00,,,0.10,Wunderground v.1.15,2013-11-17 13:46:00,
2013-11-17 07:52:00,68.5,62.4,28.88,South,178,10.0,10.0,81,0.00,,,0.10,Wunderground v.1.15,2013-11-17 13:52:00,
2013-11-17 07:58:00,68.3,62.2,28.88,South,171,8.0,14.0,81,0.00,,,0.10,Wunderground v.1.15,2013-11-17 13:58:00,
2013-11-17 08:03:00,68.4,62.3,28.88,SSE,150,9.0,9.0,81,0.00,,,0.10,Wunderground v.1.15,2013-11-17 14:03:00,
2013-11-17 08:09:00,68.5,62.4,28.88,South,169,9.0,18.0,81,0.00,,,0.10,Wunderground v.1.15,2013-11-17 14:09:00,
2013-11-17 08:14:00,68.8,62.7,28.88,South,186,9.0,12.0,81,0.00,,,0.10,Wunderground v.1.15,2013-11-17 14:14:00,
2013-11-17 08:20:00,68.8,62.7,28.87,South,182,9.0,12.0,81,0.00,,,0.10,Wunderground v.1.15,2013-11-17 14:20:00,
2013-11-17 08:25:00,69.2,62.8,28.87,South,182,9.0,11.0,80,0.00,,,0.10,Wunderground v.1.15,2013-11-17 14:25:00,
2013-11-17 08:30:00,69.7,63.3,28.87,South,190,9.0,9.0,80,0.00,,,0.10,Wunderground v.1.15,2013-11-17 14:30:00,
2013-11-17 08:36:00,70.1,63.3,28.87,South,175,9.0,13.0,79,0.00,,,0.10,Wunderground v.1.15,2013-11-17 14:36:00,
2013-11-17 08:42:00,-999.9,-99.9,28.87,SSW,195,10.0,10.0,78,0.00,,,0.10,Wunderground v.1.15,2013-11-17 14:42:00,
2013-11-17 08:48:00,70.3,63.1,28.87,South,184,11.0,19.0,78,0.00,,,0.10,Wunderground v.1.15,2013-11-17 14:48:00,
2013-11-17 08:54:00,70.6,63.0,28.86,SSE,165,12.0,25.0,77,0.00,,,0.10,Wunderground v.1.15,2013-11-17 14:54:00,
2013-11-17 09:00:00,71.2,63.2,28.86,South,182,13.0,25.0,76,0.00,,,0.10,Wunderground v.1.15,2013-11-17 15:00:00,
2013-11-17 09:05:00,71.4,63.4,28.86,South,183,13.0,14.0,76,0.00,,,0.10,Wunderground v.1.15,2013-11-17 15:05:00,
2013-11-17 09:11:00,71.5,63.2,28.86,South,178,12.0,14.0,75,0.00,,,0.10,Wunderground v.1.15,2013-11-17 15:11:00,
2013-11-17 09:16:00,71.7,63.4,28.85,South,186,13.0,15.0,75,0.00,,,0.10,Wunderground v.1.15,2013-11-17 15:16:00,
2013-11-17 09:22:00,71.9,63.5,28.85,SSE,166,13.0,13.0,75,0.00,,,0.10,Wunderground v.1.15,2013-11-17 15:22:00,
2013-11-17 09:27:00,71.9,63.2,28.84,South,169,11.0,13.0,74,0.00,,,0.10,Wunderground v.1.15,2013-11-17 15:27:00,
2013-11-17 09:33:00,72.2,63.1,28.83,SSE,162,12.0,21.0,73,0.00,,,0.10,Wunderground v.1.15,2013-11-17 15:33:00,
2013-11-17 09:38:00,72.5,63.4,28.82,South,185,14.0,24.0,73,0.00,,,0.10,Wunderground v.1.15,2013-11-17 15:38:00,
2013-11-17 09:44:00,72.8,63.2,28.83,SSE,148,16.0,22.0,72,0.00,,,0.10,Wunderground v.1.15,2013-11-17 15:44:00,
2013-11-17 09:50:00,72.5,62.6,28.83,SSW,196,16.0,22.0,71,0.00,,,0.10,Wunderground v.1.15,2013-11-17 15:50:00,
2013-11-17 09:55:00,72.4,62.5,28.84,SW,221,14.0,18.0,71,0.00,,,0.10,Wunderground v.1.15,2013-11-17 15:55:00,
2013-11-17 10:01:00,72.5,61.3,28.83,SSW,211,13.0,13.0,68,0.00,,,0.10,Wunderground v.1.15,2013-11-17 16:01:00,
2013-11-17 10:06:00,72.8,61.6,28.83,South,190,13.0,17.0,68,0.00,,,0.10,Wunderground v.1.15,2013-11-17 16:06:00,
2013-11-17 10:12:00,73.2,59.8,28.82,SSW,198,16.0,22.0,63,0.00,,,0.10,Wunderground v.1.15,2013-11-17 16:12:00,
2013-11-17 10:18:00,73.2,59.4,28.81,WSW,246,16.0,25.0,62,0.00,,,0.10,Wunderground v.1.15,2013-11-17 16:18:00,
2013-11-17 10:23:00,73.4,58.2,28.83,SSW,213,15.0,22.0,59,0.00,,,0.10,Wunderground v.1.15,2013-11-17 16:23:00,
2013-11-17 10:29:00,73.5,58.3,28.82,WNW,286,15.0,26.0,59,0.00,,,0.10,Wunderground v.1.15,2013-11-17 16:29:00,
2013-11-17 10:34:00,73.5,57.3,28.81,SW,231,17.0,40.0,57,0.00,,,0.10,Wunderground v.1.15,2013-11-17 16:34:00,
2013-11-17 10:40:00,73.7,57.5,28.82,SW,223,17.0,17.0,57,0.00,,,0.10,Wunderground v.1.15,2013-11-17 16:40:00,
2013-11-17 10:46:00,73.8,57.6,28.82,SW,232,18.0,29.0,57,0.00,,,0.10,Wunderground v.1.15,2013-11-17 16:46:00,
2013-11-17 10:51:00,73.3,56.7,28.84,WSW,244,19.0,26.0,56,0.00,,,0.10,Wunderground v.1.15,2013-11-17 16:51:00,
2013-11-17 10:57:00,72.9,56.3,28.85,SW,215,16.0,28.0,56,0.00,,,0.10,Wunderground v.1.15,2013-11-17 16:57:00,
2013-11-17 11:02:00,70.2,55.2,28.86,WSW,240,18.0,40.0,59,0.00,,,0.10,Wunderground v.1.15,2013-11-17 17:02:00,
2013-11-17 11:08:00,66.6,57.3,28.86,SW,217,17.0,40.0,72,0.00,,,0.11,Wunderground v.1.15,2013-11-17 17:08:00,
2013-11-17 11:14:00,66.0,57.1,28.86,SW,217,13.0,17.0,73,0.00,,,0.11,Wunderground v.1.15,2013-11-17 17:14:00,
2013-11-17 11:19:00,66.3,55.4,28.87,WSW,242,14.0,31.0,68,0.00,,,0.11,Wunderground v.1.15,2013-11-17 17:19:00,
2013-11-17 11:25:00,66.9,53.9,28.88,SW,236,17.0,40.0,63,0.00,,,0.11,Wunderground v.1.15,2013-11-17 17:25:00,
2013-11-17 11:30:00,67.6,53.2,28.88,WSW,240,16.0,16.0,60,0.00,,,0.11,Wunderground v.1.15,2013-11-17 17:30:00,
2013-11-17 11:36:00,67.7,53.3,28.89,WNW,298,16.0,18.0,60,0.00,,,0.11,Wunderground v.1.15,2013-11-17 17:36:00,
2013-11-17 11:42:00,67.5,51.2,28.91,SSW,195,16.0,19.0,56,0.00,,,0.11,Wunderground v.1.15,2013-11-17 17:42:00,
2013-11-17 11:47:00,67.3,51.1,28.92,WSW,252,15.0,19.0,56,0.00,,,0.12,Wunderground v.1.15,2013-11-17 17:47:00,
2013-11-17 11:53:00,67.0,49.3,28.93,WSW,252,14.0,21.0,53,0.00,,,0.12,Wunderground v.1.15,2013-11-17 17:53:00,
2013-11-17 11:58:00,66.4,48.7,28.93,SW,224,15.0,24.0,53,0.00,,,0.12,Wunderground v.1.15,2013-11-17 17:58:00,
2013-11-17 12:04:00,65.6,47.0,28.94,WSW,247,14.0,21.0,51,0.00,,,0.12,Wunderground v.1.15,2013-11-17 18:04:00,
2013-11-17 12:10:00,64.8,47.3,28.95,West,267,14.0,32.0,53,0.00,,,0.12,Wunderground v.1.15,2013-11-17 18:10:00,
2013-11-17 12:15:00,64.1,47.6,28.96,West,262,14.0,15.0,55,0.00,,,0.12,Wunderground v.1.15,2013-11-17 18:15:00,
2013-11-17 12:21:00,64.1,47.6,28.97,WSW,250,13.0,13.0,55,0.00,,,0.12,Wunderground v.1.15,2013-11-17 18:21:00,
2013-11-17 12:26:00,64.8,48.7,28.97,WSW,258,12.0,22.0,56,0.00,,,0.12,Wunderground v.1.15,2013-11-17 18:26:00,
2013-11-17 12:32:00,63.5,48.0,28.97,WSW,245,13.0,13.0,57,0.00,,,0.12,Wunderground v.1.15,2013-11-17 18:32:00,
2013-11-17 12:38:00,63.1,48.5,28.98,WSW,255,13.0,22.0,59,0.00,,,0.12,Wunderground v.1.15,2013-11-17 18:38:00,
2013-11-17 12:43:00,63.1,48.1,28.99,West,266,11.0,24.0,58,0.00,,,0.12,Wunderground v.1.15,2013-11-17 18:43:00,
2013-11-17 12:49:00,62.8,48.3,28.99,West,265,12.0,30.0,59,0.00,,,0.12,Wunderground v.1.15,2013-11-17 18:49:00,
2013-11-17 12:54:00,62.6,48.1,29.00,WSW,250,10.0,12.0,59,0.00,,,0.12,Wunderground v.1.15,2013-11-17 18:54:00,
2013-11-17 13:00:00,62.6,48.1,29.01,West,275,7.0,15.0,59,0.00,,,0.12,Wunderground v.1.15,2013-11-17 19:00:00,
2013-11-17 13:05:00,62.3,46.9,29.02,WNW,288,7.0,15.0,57,0.00,,,0.12,Wunderground v.1.15,2013-11-17 19:05:00,
2013-11-17 13:11:00,61.8,45.0,29.02,WSW,249,8.0,15.0,54,0.00,,,0.12,Wunderground v.1.15,2013-11-17 19:11:00,
2013-11-17 13:17:00,61.4,44.1,29.02,WSW,239,10.0,16.0,53,0.00,,,0.12,Wunderground v.1.15,2013-11-17 19:17:00,
2013-11-17 13:22:00,60.8,44.0,29.03,West,279,11.0,19.0,54,0.00,,,0.12,Wunderground v.1.15,2013-11-17 19:22:00,
2013-11-17 13:28:00,60.8,43.6,29.02,WSW,241,9.0,19.0,53,0.00,,,0.12,Wunderground v.1.15,2013-11-17 19:28:00,
2013-11-17 13:33:00,60.8,44.0,29.03,West,267,9.0,14.0,54,0.00,,,0.12,Wunderground v.1.15,2013-11-17 19:33:00,
2013-11-17 13:39:00,60.8,43.6,29.03,WSW,243,10.0,18.0,53,0.00,,,0.12,Wunderground v.1.15,2013-11-17 19:39:00,
2013-11-17 13:45:00,61.1,43.8,29.04,WSW,240,8.0,11.0,53,0.00,,,0.12,Wunderground v.1.15,2013-11-17 19:45:00,
2013-11-17 13:50:00,61.6,43.8,29.05,West,259,5.0,6.0,52,0.00,,,0.12,Wunderground v.1.15,2013-11-17 19:50:00,
2013-11-17 13:56:00,61.7,42.9,29.05,West,263,7.0,14.0,50,0.00,,,0.12,Wunderground v.1.15,2013-11-17 19:56:00,
2013-11-17 14:01:00,61.6,42.8,29.05,SW,234,11.0,11.0,50,0.00,,,0.12,Wunderground v.1.15,2013-11-17 20:01:00,
2013-11-17 14:06:00,62.0,43.1,29.06,WSW,251,9.0,12.0,50,0.00,,,0.12,Wunderground v.1.15,2013-11-17 20:06:00,
2013-11-17 14:12:00,62.2,42.8,29.06,SSW,209,7.0,9.0,49,0.00,,,0.12,Wunderground v.1.15,2013-11-17 20:12:00,
2013-11-17 14:17:00,62.5,42.0,29.07,West,281,7.0,20.0,47,0.00,,,0.12,Wunderground v.1.15,2013-11-17 20:17:00,
2013-11-17 14:23:00,62.6,42.1,29.07,West,259,8.0,10.0,47,0.00,,,0.12,Wunderground v.1.15,2013-11-17 20:23:00,
2013-11-17 14:28:00,62.8,42.3,29.07,WNW,296,10.0,29.0,47,0.00,,,0.12,Wunderground v.1.15,2013-11-17 20:28:00,
2013-11-17 14:34:00,62.5,42.0,29.08,SW,225,9.0,9.0,47,0.00,,,0.12,Wunderground v.1.15,2013-11-17 20:34:00,
2013-11-17 14:39:00,62.6,42.6,29.09,WSW,257,6.0,9.0,48,0.00,,,0.12,Wunderground v.1.15,2013-11-17 20:39:00,
2013-11-17 14:45:00,62.6,41.5,29.09,WSW,237,7.0,12.0,46,0.00,,,0.12,Wunderground v.1.15,2013-11-17 20:45:00,
2013-11-17 14:51:00,62.9,41.8,29.09,West,265,9.0,9.0,46,0.00,,,0.12,Wunderground v.1.15,2013-11-17 20:51:00,
2013-11-17 14:56:00,-999.9,-99.9,29.10,WSW,258,6.0,9.0,47,0.00,,,0.12,Wunderground v.1.15,2013-11-17 20:56:00,
2013-11-17 15:01:00,63.2,42.6,29.10,West,267,5.0,11.0,47,0.00,,,0.12,Wunderground v.1.15,2013-11-17 21:01:00,
2013-11-17 15:07:00,62.7,41.6,29.11,West,277,8.0,14.0,46,0.00,,,0.12,Wunderground v.1.15,2013-11-17 21:07:00,
2013-11-17 15:12:00,62.5,42.5,29.11,WSW,254,8.0,8.0,48,0.00,,,0.12,Wunderground v.1.15,2013-11-17 21:12:00,
2013-11-17 15:17:00,62.4,41.9,29.12,West,268,7.0,18.0,47,0.00,,,0.12,Wunderground v.1.15,2013-11-17 21:17:00,
2013-11-17 15:23:00,62.4,41.9,29.11,WSW,254,9.0,18.0,47,0.00,,,0.12,Wunderground v.1.15,2013-11-17 21:23:00,
2013-11-17 15:28:00,62.5,42.0,29.12,West,271,7.0,18.0,47,0.00,,,0.12,Wunderground v.1.15,2013-11-17 21:28:00,
2013-11-17 15:34:00,62.5,41.4,29.12,WSW,242,6.0,9.0,46,0.00,,,0.12,Wunderground v.1.15,2013-11-17 21:34:00,
2013-11-17 15:39:00,62.3,41.2,29.12,West,266,7.0,11.0,46,0.00,,,0.12,Wunderground v.1.15,2013-11-17 21:39:00,
2013-11-17 15:44:00,62.3,41.8,29.13,West,271,6.0,8.0,47,0.00,,,0.12,Wunderground v.1.15,2013-11-17 21:44:00,
2013-11-17 15:50:00,62.1,41.1,29.13,West,279,6.0,12.0,46,0.00,,,0.12,Wunderground v.1.15,2013-11-17 21:50:00,
2013-11-17 15:55:00,61.4,42.1,29.13,West,268,7.0,11.0,49,0.00,,,0.12,Wunderground v.1.15,2013-11-17 21:55:00,
2013-11-17 16:01:00,60.7,40.9,29.14,West,267,7.0,7.0,48,0.00,,,0.12,Wunderground v.1.15,2013-11-17 22:01:00,
2013-11-17 16:06:00,60.1,40.9,29.14,WSW,248,7.0,9.0,49,0.00,,,0.12,Wunderground v.1.15,2013-11-17 22:06:00,
2013-11-17 16:11:00,59.8,40.6,29.14,West,280,5.0,7.0,49,0.00,,,0.12,Wunderground v.1.15,2013-11-17 22:11:00,
2013-11-17 16:17:00,60.0,40.2,29.14,West,281,4.0,14.0,48,0.00,,,0.12,Wunderground v.1.15,2013-11-17 22:17:00,
2013-11-17 16:22:00,59.5,39.8,29.15,West,274,5.0,5.0,48,0.00,,,0.12,Wunderground v.1.15,2013-11-17 22:22:00,
2013-11-17 16:27:00,59.1,39.9,29.15,WSW,252,4.0,7.0,49,0.00,,,0.12,Wunderground v.1.15,2013-11-17 22:27:00,
2013-11-17 16:33:00,58.8,40.2,29.16,WSW,253,2.0,4.0,50,0.00,,,0.12,Wunderground v.1.15,2013-11-17 22:33:00,
2013-11-17 16:38:00,58.4,40.3,29.17,West,265,1.0,4.0,51,0.00,,,0.12,Wunderground v.1.15,2013-11-17 22:38:00,
2013-11-17 16:44:00,58.3,39.7,29.17,West,265,0.0,1.0,50,0.00,,,0.12,Wunderground v.1.15,2013-11-17 22:44:00,
2013-11-17 16:49:00,58.0,40.5,29.18,West,265,0.0,1.0,52,0.00,,,0.12,Wunderground v.1.15,2013-11-17 22:49:00,
2013-11-17 16:54:00,57.5,40.0,29.18,West,265,0.0,0.0,52,0.00,,,0.12,Wunderground v.1.15,2013-11-17 22:54:00,
2013-11-17 17:00:00,57.3,40.8,29.19,West,265,0.0,0.0,54,0.00,,,0.12,Wunderground v.1.15,2013-11-17 23:00:00,
2013-11-17 17:05:00,56.7,40.2,29.19,West,265,0.0,0.0,54,0.00,,,0.12,Wunderground v.1.15,2013-11-17 23:05:00,
2013-11-17 17:11:00,56.3,40.8,29.20,West,265,0.0,0.0,56,0.00,,,0.12,Wunderground v.1.15,2013-11-17 23:11:00,
2013-11-17 17:16:00,-999.9,-99.9,29.21,West,265,0.0,0.0,57,0.00,,,0.12,Wunderground v.1.15,2013-11-17 23:16:00,
2013-11-17 17:21:00,55.4,41.3,29.21,West,264,0.0,0.0,59,0.00,,,0.12,Wunderground v.1.15,2013-11-17 23:21:00,
2013-11-17 17:27:00,55.2,41.1,29.22,West,264,0.0,0.0,59,0.00,,,0.12,Wunderground v.1.15,2013-11-17 23:27:00,
2013-11-17 17:32:00,55.3,41.6,29.23,West,263,0.0,0.0,60,0.00,,,0.12,Wunderground v.1.15,2013-11-17 23:32:00,
2013-11-17 17:37:00,54.9,41.3,29.23,West,264,0.0,0.0,60,0.00,,,0.12,Wunderground v.1.15,2013-11-17 23:37:00,
2013-11-17 17:43:00,54.7,41.5,29.28,NW,307,1.0,12.0,61,0.00,,,0.12,Wunderground v.1.15,2013-11-17 23:43:00,
2013-11-17 17:48:00,54.4,41.6,29.29,NNW,329,8.0,18.0,62,0.00,,,0.12,Wunderground v.1.15,2013-11-17 23:48:00,
2013-11-17 17:54:00,53.7,40.6,29.29,NW,315,12.0,13.0,61,0.00,,,0.12,Wunderground v.1.15,2013-11-17 23:54:00,
2013-11-17 17:59:00,52.6,-99.9,29.30,NW,309,10.0,20.0,255,0.00,,,0.12,Wunderground v.1.15,2013-11-17 23:59:00,
2013-11-17 18:05:00,51.9,40.9,29.30,NNW,329,8.0,23.0,66,0.00,,,0.12,Wunderground v.1.15,2013-11-18 00:05:00,
2013-11-17 18:10:00,51.4,40.8,29.30,WNW,296,8.0,11.0,67,0.00,,,0.12,Wunderground v.1.15,2013-11-18 00:10:00,
2013-11-17 18:15:00,51.1,40.9,29.30,NW,326,8.0,12.0,68,0.00,,,0.12,Wunderground v.1.15,2013-11-18 00:15:00,
2013-11-17 18:21:00,50.8,41.0,29.30,West,281,7.0,7.0,69,0.00,,,0.12,Wunderground v.1.15,2013-11-18 00:21:00,
2013-11-17 18:26:00,50.6,40.8,29.30,WNW,286,5.0,11.0,69,0.00,,,0.12,Wunderground v.1.15,2013-11-18 00:26:00,
2013-11-17 18:32:00,50.5,41.1,29.30,WNW,289,4.0,12.0,70,0.00,,,0.12,Wunderground v.1.15,2013-11-18 00:32:00,
2013-11-17 18:37:00,50.3,40.9,29.30,WNW,288,4.0,12.0,70,0.00,,,0.12,Wunderground v.1.15,2013-11-18 00:37:00,
2013-11-17 18:42:00,50.1,41.1,29.30,WNW,284,2.0,3.0,71,0.00,,,0.12,Wunderground v.1.15,2013-11-18 00:42:00,
2013-11-17 18:48:00,50.3,-99.9,29.31,WNW,284,1.0,3.0,255,0.00,,,0.12,Wunderground v.1.15,2013-11-18 00:48:00,
2013-11-17 18:53:00,50.3,40.5,29.31,West,278,1.0,1.0,69,0.00,,,0.12,Wunderground v.1.15,2013-11-18 00:53:00,
2013-11-17 18:59:00,50.4,-99.9,29.32,West,276,1.0,2.0,255,0.00,,,0.12,Wunderground v.1.15,2013-11-18 00:59:00,
2013-11-17 19:05:00,49.3,41.4,29.33,West,269,1.0,1.0,74,0.00,,,0.12,Wunderground v.1.15,2013-11-18 01:05:00,
2013-11-17 19:11:00,50.4,-99.9,29.33,West,269,1.0,1.0,255,0.00,,,0.12,Wunderground v.1.15,2013-11-18 01:11:00,
2013-11-17 19:16:00,49.1,40.8,29.33,West,265,0.0,1.0,73,0.00,,,0.12,Wunderground v.1.15,2013-11-18 01:16:00,
2013-11-17 19:22:00,48.8,41.2,29.32,West,265,0.0,0.0,75,0.00,,,0.12,Wunderground v.1.15,2013-11-18 01:22:00,
2013-11-17 19:27:00,48.7,41.1,29.33,WSW,254,0.0,2.0,75,0.00,,,0.12,Wunderground v.1.15,2013-11-18 01:27:00,
2013-11-17 19:33:00,-19.0,-24.7,29.34,West,265,0.0,0.0,74,0.00,,,0.12,Wunderground v.1.15,2013-11-18 01:33:00,
2013-11-17 19:38:00,48.2,41.0,29.34,West,265,0.0,0.0,76,0.00,,,0.12,Wunderground v.1.15,2013-11-18 01:38:00,
2013-11-17 19:44:00,48.4,40.8,29.35,SW,236,1.0,3.0,75,0.00,,,0.12,Wunderground v.1.15,2013-11-18 01:44:00,
2013-11-17 19:49:00,48.2,41.0,29.35,WSW,248,1.0,3.0,76,0.00,,,0.12,Wunderground v.1.15,2013-11-18 01:49:00,
2013-11-17 19:55:00,48.1,41.2,29.36,SW,236,1.0,1.0,77,0.00,,,0.12,Wunderground v.1.15,2013-11-18 01:55:00,
2013-11-17 20:01:00,-18.7,-24.2,29.37,SW,234,1.0,1.0,75,0.00,,,0.12,Wunderground v.1.15,2013-11-18 02:01:00,
2013-11-17 20:06:00,47.8,40.6,29.37,WSW,237,1.0,6.0,76,0.00,,,0.12,Wunderground v.1.15,2013-11-18 02:06:00,
2013-11-17 20:12:00,48.2,41.0,29.38,WSW,240,1.0,1.0,76,0.00,,,0.12,Wunderground v.1.15,2013-11-18 02:12:00,
2013-11-17 20:18:00,47.8,40.9,29.38,WSW,240,1.0,6.0,77,0.00,,,0.12,Wunderground v.1.15,2013-11-18 02:18:00,
2013-11-17 20:23:00,47.5,40.6,29.38,WSW,254,1.0,5.0,77,0.00,,,0.12,Wunderground v.1.15,2013-11-18 02:23:00,
2013-11-17 20:29:00,47.2,40.7,29.38,West,262,1.0,5.0,78,0.00,,,0.12,Wunderground v.1.15,2013-11-18 02:29:00,
2013-11-17 20:34:00,47.0,40.5,29.39,West,264,1.0,4.0,78,0.00,,,0.12,Wunderground v.1.15,2013-11-18 02:34:00,
2013-11-17 20:40:00,46.9,40.7,29.39,West,263,1.0,4.0,79,0.00,,,0.12,Wunderground v.1.15,2013-11-18 02:40:00,
2013-11-17 20:45:00,46.8,40.6,29.39,West,265,0.0,5.0,79,0.00,,,0.12,Wunderground v.1.15,2013-11-18 02:45:00,
2013-11-17 20:50:00,46.6,40.4,29.40,West,264,0.0,0.0,79,0.00,,,0.12,Wunderground v.1.15,2013-11-18 02:50:00,
2013-11-17 20:56:00,46.6,40.4,29.40,West,267,0.0,2.0,79,0.00,,,0.12,Wunderground v.1.15,2013-11-18 02:56:00,
2013-11-17 21:01:00,46.5,40.3,29.40,West,261,0.0,0.0,79,0.00,,,0.12,Wunderground v.1.15,2013-11-18 03:01:00,
2013-11-17 21:07:00,46.4,40.6,29.40,West,261,0.0,2.0,80,0.00,,,0.12,Wunderground v.1.15,2013-11-18 03:07:00,
2013-11-17 21:12:00,46.2,40.4,29.40,West,259,0.0,0.0,80,0.00,,,0.12,Wunderground v.1.15,2013-11-18 03:12:00,
2013-11-17 21:17:00,46.2,40.4,29.41,WSW,257,0.0,2.0,80,0.00,,,0.12,Wunderground v.1.15,2013-11-18 03:17:00,
2013-11-17 21:23:00,45.9,40.4,29.41,West,259,0.0,2.0,81,0.00,,,0.12,Wunderground v.1.15,2013-11-18 03:23:00,
2013-11-17 21:28:00,45.8,40.3,29.42,West,259,0.0,2.0,81,0.00,,,0.12,Wunderground v.1.15,2013-11-18 03:28:00,
2013-11-17 21:33:00,45.7,40.2,29.42,West,281,0.0,0.0,81,0.00,,,0.12,Wunderground v.1.15,2013-11-18 03:33:00,
2013-11-17 21:39:00,45.6,40.1,29.42,West,281,0.0,0.0,81,0.00,,,0.12,Wunderground v.1.15,2013-11-18 03:39:00,
2013-11-17 21:44:00,45.4,40.2,29.42,West,281,0.0,0.0,82,0.00,,,0.12,Wunderground v.1.15,2013-11-18 03:44:00,
2013-11-17 21:50:00,45.4,40.2,29.42,West,280,0.0,0.0,82,0.00,,,0.12,Wunderground v.1.15,2013-11-18 03:50:00,
2013-11-17 21:55:00,45.2,40.0,29.42,West,280,0.0,0.0,82,0.00,,,0.12,Wunderground v.1.15,2013-11-18 03:55:00,
2013-11-17 22:01:00,45.2,40.0,29.43,West,280,0.0,0.0,82,0.00,,,0.12,Wunderground v.1.15,2013-11-18 04:01:00,
2013-11-17 22:06:00,45.2,40.0,29.43,West,280,0.0,0.0,82,0.00,,,0.12,Wunderground v.1.15,2013-11-18 04:06:00,
2013-11-17 22:11:00,45.2,40.0,29.43,West,269,0.0,0.0,82,0.00,,,0.12,Wunderground v.1.15,2013-11-18 04:11:00,
2013-11-17 22:17:00,45.2,40.3,29.43,West,270,0.0,0.0,83,0.00,,,0.12,Wunderground v.1.15,2013-11-18 04:17:00,
2013-11-17 22:22:00,45.2,40.3,29.43,West,266,0.0,0.0,83,0.00,,,0.12,Wunderground v.1.15,2013-11-18 04:22:00,
2013-11-17 22:28:00,45.1,40.2,29.43,West,265,0.0,0.0,83,0.00,,,0.12,Wunderground v.1.15,2013-11-18 04:28:00,
2013-11-17 22:33:00,45.1,40.2,29.44,West,265,0.0,1.0,83,0.00,,,0.12,Wunderground v.1.15,2013-11-18 04:33:00,
2013-11-17 22:39:00,45.0,40.1,29.44,West,265,0.0,1.0,83,0.00,,,0.12,Wunderground v.1.15,2013-11-18 04:39:00,
2013-11-17 22:44:00,45.1,40.2,29.44,West,262,0.0,0.0,83,0.00,,,0.12,Wunderground v.1.15,2013-11-18 04:44:00,
2013-11-17 22:50:00,45.1,40.2,29.45,West,260,1.0,1.0,83,0.00,,,0.12,Wunderground v.1.15,2013-11-18 04:50:00,
2013-11-17 22:56:00,45.1,40.2,29.45,WSW,252,1.0,1.0,83,0.00,,,0.12,Wunderground v.1.15,2013-11-18 04:56:00,
2013-11-17 23:01:00,45.3,40.1,29.45,WSW,254,0.0,0.0,82,0.00,,,0.12,Wunderground v.1.15,2013-11-18 05:01:00,
2013-11-17 23:02:00,45.3,40.1,29.45,WSW,254,0.0,0.0,82,0.00,,,0.12,Wunderground v.1.15,2013-11-18 05:02:00,
2013-11-17 23:04:00,45.3,40.1,29.45,WSW,251,1.0,1.0,82,0.00,,,0.12,Wunderground v.1.15,2013-11-18 05:04:00,
2013-11-17 23:09:00,45.4,40.2,29.46,WSW,243,0.0,1.0,82,0.00,,,0.12,Wunderground v.1.15,2013-11-18 05:09:00,
2013-11-17 23:10:00,45.4,40.2,29.46,WSW,242,1.0,1.0,82,0.00,,,0.12,Wunderground v.1.15,2013-11-18 05:10:00,
2013-11-17 23:11:00,45.5,-99.9,29.45,WSW,242,1.0,1.0,255,0.00,,,0.12,Wunderground v.1.15,2013-11-18 05:11:00,
2013-11-17 23:17:00,45.4,40.2,29.46,WSW,240,1.0,7.0,82,0.00,,,0.12,Wunderground v.1.15,2013-11-18 05:17:00,
2013-11-17 23:23:00,45.4,40.2,29.45,WSW,244,1.0,3.0,82,0.00,,,0.12,Wunderground v.1.15,2013-11-18 05:23:00,
2013-11-17 23:28:00,45.2,39.7,29.46,WSW,250,1.0,4.0,81,0.00,,,0.12,Wunderground v.1.15,2013-11-18 05:28:00,
2013-11-17 23:34:00,45.2,39.7,29.46,WSW,254,1.0,8.0,81,0.00,,,0.12,Wunderground v.1.15,2013-11-18 05:34:00,
2013-11-17 23:39:00,45.2,39.7,29.46,WSW,255,1.0,8.0,81,0.00,,,0.12,Wunderground v.1.15,2013-11-18 05:39:00,
2013-11-17 23:45:00,45.1,39.6,29.47,WSW,255,1.0,1.0,81,0.00,,,0.12,Wunderground v.1.15,2013-11-18 05:45:00,
2013-11-17 23:50:00,45.1,39.6,29.47,West,262,1.0,5.0,81,0.00,,,0.12,Wunderground v.1.15,2013-11-18 05:50:00,
2013-11-17 23:55:00,45.3,39.8,29.47,West,260,1.0,4.0,81,0.00,,,0.12,Wunderground v.1.15,2013-11-18 05:55:00,